Regional Weather Roundup
Issued by NWS

Home | Current Version | Previous Version | Text Only | Print | Product List | Glossary On
Versions: 1 2 3 4 5 6 7 8 9 10 11 12 13 14 15 16 17 18 19 20 21 22 23 24 25 26 27 28 29 30 31 32 33 34 35 36 37 38 39 40 41 42 43 44 45 46 47 48 49 50
000
ASUS43 KMKX 010421
RWRWI

WISCONSIN REGIONAL WEATHER ROUNDUP
NATIONAL WEATHER SERVICE MILWAUKEE/SULLIVAN WI
1100 PM CDT FRI JUL 31 2015

NOTE: "FAIR" INDICATES FEW OR NO CLOUDS BELOW 12,000 FEET WITH NO
SIGNIFICANT WEATHER AND/OR OBSTRUCTIONS TO VISIBILITY.

WIZ001-002-006>008-014>016-023>028-010500-
NORTHWEST WISCONSIN

CITY           SKY/WX    TMP DP  RH WIND       PRES   REMARKS
SUPERIOR ARPT  CLEAR     63  53  67 W6        29.94R
ASHLAND        CLEAR     54  53  97 SW6       29.92S
HAYWARD        CLEAR     57  51  80 CALM      29.97R
SIREN          CLEAR     61  52  72 W3        29.98R
CUMBERLAND     PTCLDY    59  52  77 W3        29.99R
RICE LAKE      CLEAR     58  55  88 W3        30.00R
CHETEK         CLEAR     61  55  81 CALM      29.98R
LADYSMITH      CLEAR     61  53  75 SW3       29.98S
EAU CLAIRE     CLEAR     63  53  70 SW5       29.98R
MENOMONIE      CLEAR     64  54  68 SW6       29.99R
NEW RICHMOND   CLEAR     65  54  69 W5        30.00R
OSCEOLA        CLEAR     64  56  76 CALM      30.01S
$$

WIZ003>005-009-010-017-018-010500-
NORTH CENTRAL WISCONSIN

CITY           SKY/WX    TMP DP  RH WIND       PRES   REMARKS
MANITOWISH WTR MOCLDY    55  55 100 CALM      29.94S
ARBOR VITAE    CLOUDY    59  57  92 CALM      29.95R
WOODRUFF       CLOUDY    59  57  92 CALM      29.95R
RHINELANDER    CLEAR     54  52  93 W6        29.96S
EAGLE RIVER    PTCLDY    53  53  99 SW3       29.94S
LAND O LAKES   CLEAR     57  54  88 W3        29.94S
PHILLIPS       CLEAR     59  55  84 W3        29.96R
TOMAHAWK       CLEAR     53  52  97 CALM      29.96S FOG
MEDFORD        CLEAR     62  53  71 W7        29.98R
MERRILL        NOT AVBL
$$

WIZ029-030-035-036-043>047-010500-
CENTRAL WISCONSIN

CITY           SKY/WX    TMP DP  RH WIND       PRES   REMARKS
WAUSAU         CLEAR     64  56  75 SW5       29.95S
MOSINEE        CLEAR     57  54  88 SW5       29.98S
MARSHFIELD     CLEAR     63  50  62 W7        29.98R
STEVENS POINT  CLEAR     59  53  80 CALM      29.98S
WAUPACA        PTCLDY    64  56  75 CALM      29.96S
WAUTOMA        CLEAR     63  52  67 W3        29.98R
WISC RAPIDS    CLEAR     65  51  60 W8        29.98S
CAMP DOUGLAS   CLEAR     59  55  85 W2        29.98S
$$

WIZ011>013-019>022-031-037>040-048>050-010500-
NORTHEAST WISCONSIN

CITY           SKY/WX    TMP DP  RH WIND       PRES   REMARKS
ANTIGO         CLOUDY    57  56  98 SW3       29.96S
SHAWANO        MOCLDY    66  56  70 W5        29.94S
OCONTO         CLEAR     60  54  80 CALM      29.91S
STURGEON BAY   PTCLDY    64  52  63 W6        29.94R
GREEN BAY      MOCLDY    63  56  78 W6        29.93S
MANITOWOC      PTCLDY    68  53  58 MISG      29.94R
APPLETON       MOCLDY    66  54  63 VRB5      29.96S
CLINTONVILLE   PTCLDY    63  54  72 W3        29.94S
OSHKOSH        CLOUDY    68  54  60 W3        29.95S
$$

WIZ032>034-041-042-053>061-010500-
SOUTHWEST WISCONSIN

CITY           SKY/WX    TMP DP  RH WIND       PRES   REMARKS
LA CROSSE      CLEAR     65  57  75 E3        29.99S
SPARTA         CLEAR     55  52  88 CALM      30.01R
VIROQUA        CLEAR     64  53  68 W5        30.03R
BOSCOBEL       CLEAR     60  57  89 CALM      30.01R
PRAIRIE DU CHI CLEAR     65  56  74 CALM      30.02R
PLATTEVILLE    CLEAR     65  56  73 W5        30.03R
$$

WIZ056-057-062-063-064-067-068-010500-
SOUTH CENTRAL WISCONSIN

CITY           SKY/WX    TMP DP  RH WIND       PRES   REMARKS
REEDSBURG      CLEAR     62  54  73 CALM      29.99S
BARABOO/DELLS  CLEAR     61  50  67 S3        30.00R
LONE ROCK      CLEAR     59  54  83 CALM      30.01R
MINERAL POINT  CLEAR     64  54  68 W3        30.03R
MADISON        CLEAR     67  51  56 W5        29.99R
MIDDLETON      CLEAR     59  54  85 CALM      30.01R
WATERTOWN      CLEAR     59  55  87 CALM      29.98S
MONROE         CLEAR     68  52  56 W8        30.01R
JANESVILLE     CLEAR     63  54  72 W3        29.99S
$$

WIZ051-052-058>065-066-070>072-010500-
SOUTHEAST WISCONSIN

CITY           SKY/WX    TMP DP  RH WIND       PRES   REMARKS
MILWAUKEE      PTCLDY    73  50  44 W8        29.96R
WAUKESHA       CLEAR     64  50  59 W7        29.99R
MILWAUKEE/TIMM CLEAR     68  48  49 W6        29.97S
RACINE         CLEAR     70  50  49 W5        29.98R
BURLINGTON     CLEAR     63  51  65 W6        29.98S
KENOSHA        CLEAR     62  52  69 W7        29.98R
FOND DU LAC    MOCLDY    66  53  63 W6        29.96S
SHEBOYGAN      CLOUDY    69  55  60 NW7       29.95R
WEST BEND      MOCLDY    64  50  59 NW5       29.97S
JUNEAU         CLEAR     63  53  68 CALM      29.99R
$$

LSZ147-162-010500-
LAKE SUPERIOR

STATION/POSITION TIME  TEMP    WIND        PRES    WAVE
                       AIR SEA DIR/SP/G            HT/PER
                 (UTC) (F)     (DEG/KT/KT) (MB)    (FT/S)
W MID LAKE BUOY  0350   58 53  260/ 12/ 12 1011.0F   1/ 3
DEVILS ISLAND    0400   64     230/ 11/ 12 1012.4F
PORT WING        0340   69     260/ 10/ 15 1012.9R
SAXON HARBOR     0340   62                 1012.5R
$$

LMZ867-665-643>646-010500-
LAKE MICHIGAN

STATION/POSITION TIME  TEMP    WIND        PRES    WAVE
                       AIR SEA DIR/SP/G            HT/PER
                 (UTC) (F)     (DEG/KT/KT) (MB)    (FT/S)
CHAMBERS ISLAND  0300   70     240/  4/  8 1012.2R
S GREEN BAY BUOY 0300   68 71  280/  8/ 10 1014.3
N MID LAKE BUOY  0350   70 68  280/  8/ 12 1011.0S   1/ 4
NORTHPORT PIER   0300   72     290/  6/ 10 1011.9R
SISTER BAY       0344   72     310/ 16/ 18   N/A
ALGOMA LAKESHORE 0312          330/  2/  6   N/A
KEWAUNEE LAKESHO 0300   68     300/  4/  7 1012.6R
SHEBOYGAN LAKESH 0400   72     300/ 11/ 12 1014.0R
PORT WASHINGTON  0340   72     290/  4/  7 1014.6R
ATWATER BUOY     0400   72 68  270/  8/ 10 1015.8R
MILWAUKEE LAKESH 0400   74     290/  7/  9   N/A
KENOSHA   LAKESH 0400   72     280/  9/ 13 1014.2R
$$

TC  - TEMPERATURE IN CELSIUS
VSB - VISIBILITY IN STATUTE MILES
WCI - WIND CHILL INDEX
HX  - HEAT INDEX




USA.gov is the U.S. government's official web portal to all federal, state and local government web resources and services.